TimeGMT,TemperatureF,Dew PointF,Humidity,Sea Level PressureIn,VisibilityMPH,Wind Direction,Wind SpeedMPH,Gust SpeedMPH,PrecipitationIn,Events,Conditions,WindDirDegrees,DateUTC
12:20 AM,48.2,39.2,71,29.59,-9999.0,Variable,3.5,-,N/A,,Clear,0,2013-03-06 00:20:00
12:50 AM,46.4,39.2,76,29.59,-9999.0,NE,2.3,-,N/A,,Clear,40,2013-03-06 00:50:00
1:20 AM,46.4,39.2,76,29.56,6.2,NE,4.6,-,N/A,,Unknown,40,2013-03-06 01:20:00
1:50 AM,46.4,39.2,76,29.56,5.6,ENE,3.5,-,N/A,,Unknown,60,2013-03-06 01:50:00
2:20 AM,44.6,39.2,81,29.56,5.6,NE,3.5,-,N/A,,Unknown,50,2013-03-06 02:20:00
2:50 AM,45,39,71,29.57,5,ENE,1.2,,,,Light Haze,70,2013-03-06 02:50:00
2:50 AM,44.6,39.2,81,29.56,5.6,ENE,3.5,-,N/A,,Unknown,70,2013-03-06 02:50:00
3:20 AM,44.6,39.2,81,29.56,5.6,ENE,4.6,-,N/A,,Unknown,60,2013-03-06 03:20:00
3:50 AM,44.6,39.2,81,29.56,5.0,ENE,4.6,-,N/A,,Unknown,70,2013-03-06 03:50:00
4:20 AM,44.6,39.2,81,29.56,5.6,ENE,4.6,-,N/A,,Unknown,70,2013-03-06 04:20:00
4:50 AM,46.4,39.2,76,29.56,5.0,ENE,4.6,-,N/A,,Unknown,60,2013-03-06 04:50:00
5:20 AM,46.4,39.2,76,29.53,5.0,ENE,4.6,-,N/A,,Unknown,70,2013-03-06 05:20:00
5:50 AM,47,40,70,29.55,4,NNE,4.6,,,Rain,Rain,30,2013-03-06 05:50:00
5:50 AM,46.4,39.2,76,29.53,5.0,NE,4.6,-,N/A,,Unknown,40,2013-03-06 05:50:00
6:20 AM,46.4,41.0,81,29.53,4.3,ENE,3.5,-,N/A,,Unknown,60,2013-03-06 06:20:00
6:50 AM,46.4,41.0,81,29.53,4.3,NE,4.6,-,N/A,,Unknown,50,2013-03-06 06:50:00
7:20 AM,46.4,41.0,81,29.56,4.3,NE,4.6,-,N/A,,Unknown,50,2013-03-06 07:20:00
7:50 AM,46.4,41.0,81,29.56,3.7,NE,4.6,-,N/A,,Unknown,40,2013-03-06 07:50:00
8:20 AM,46.4,41.0,81,29.56,3.7,ENE,4.6,-,N/A,,Unknown,60,2013-03-06 08:20:00
8:50 AM,48,41,68,29.57,4,NE,4.6,,,Rain,Rain,50,2013-03-06 08:50:00
8:50 AM,48.2,41.0,76,29.56,3.7,ENE,5.8,-,N/A,,Unknown,60,2013-03-06 08:50:00
9:20 AM,50.0,41.0,71,29.56,3.7,ENE,6.9,-,N/A,,Unknown,60,2013-03-06 09:20:00
9:50 AM,50.0,41.0,71,29.56,4.3,ENE,8.1,-,N/A,,Unknown,70,2013-03-06 09:50:00
10:20 AM,51.8,41.0,67,29.56,4.3,East,8.1,-,N/A,,Unknown,80,2013-03-06 10:20:00
10:50 AM,51.8,42.8,71,29.56,4.3,ENE,6.9,-,N/A,,Unknown,70,2013-03-06 10:50:00
11:20 AM,51.8,41.0,67,29.56,5.0,East,6.9,-,N/A,,Unknown,80,2013-03-06 11:20:00
11:50 AM,54,42,54,29.56,6,East,8.1,,,,Light Haze,100,2013-03-06 11:50:00
11:50 AM,53.6,41.0,62,29.56,5.6,East,8.1,-,N/A,,Unknown,100,2013-03-06 11:50:00
12:20 PM,53.6,41.0,62,29.53,5.6,East,8.1,-,N/A,,Unknown,100,2013-03-06 12:20:00
12:50 PM,55.4,41.0,58,29.53,5.6,East,8.1,-,N/A,,Unknown,80,2013-03-06 12:50:00
1:20 PM,55.4,41.0,58,29.53,5.6,East,8.1,-,N/A,,Unknown,90,2013-03-06 13:20:00
1:50 PM,55.4,42.8,63,29.53,5.6,East,8.1,-,N/A,,Unknown,90,2013-03-06 13:50:00
2:20 PM,55.4,42.8,63,29.53,5.6,East,6.9,-,N/A,,Unknown,100,2013-03-06 14:20:00
2:50 PM,56,42,50,29.53,6,ENE,5.8,,,,Light Haze,70,2013-03-06 14:50:00
2:50 PM,55.4,42.8,63,29.53,5.6,ENE,5.8,-,N/A,,Unknown,70,2013-03-06 14:50:00
3:20 PM,55.4,42.8,63,29.53,5.6,ENE,5.8,-,N/A,,Unknown,70,2013-03-06 15:20:00
3:50 PM,55.4,42.8,63,29.50,5.6,ENE,6.9,-,N/A,,Unknown,60,2013-03-06 15:50:00
4:20 PM,55.4,42.8,63,29.50,5.6,ENE,6.9,-,N/A,,Unknown,70,2013-03-06 16:20:00
4:50 PM,55.4,42.8,63,29.50,-9999.0,ENE,8.1,-,N/A,,Clear,60,2013-03-06 16:50:00
5:20 PM,53.6,42.8,67,29.50,-9999.0,ENE,6.9,-,N/A,,Clear,70,2013-03-06 17:20:00
5:50 PM,54,43,57,29.52,6,East,6.9,,,Rain,Light Rain Showers,90,2013-03-06 17:50:00
5:50 PM,53.6,42.8,67,29.50,5.6,East,6.9,-,N/A,,Unknown,90,2013-03-06 17:50:00
6:20 PM,53.6,42.8,67,29.53,5.0,East,6.9,-,N/A,,Unknown,100,2013-03-06 18:20:00
6:50 PM,51.8,42.8,71,29.53,5.0,East,5.8,-,N/A,,Unknown,100,2013-03-06 18:50:00
7:20 PM,51.8,41.0,67,29.53,5.0,East,9.2,-,N/A,Rain,Light Rain,100,2013-03-06 19:20:00
7:50 PM,50.0,42.8,76,29.53,4.3,East,10.4,-,N/A,Rain,Light Rain,100,2013-03-06 19:50:00
8:20 PM,50.0,42.8,76,29.53,4.3,East,9.2,-,N/A,Rain,Light Rain,80,2013-03-06 20:20:00
8:50 PM,50,42,67,29.54,4,ENE,6.9,,,Rain,Light Rain,70,2013-03-06 20:50:00
8:50 PM,48.2,42.8,82,29.53,4.3,East,9.2,-,N/A,,Partly Cloudy,80,2013-03-06 20:50:00
9:20 PM,50.0,42.8,76,29.53,4.3,ENE,5.8,-,N/A,,Unknown,70,2013-03-06 21:20:00
9:50 PM,50.0,42.8,76,29.53,4.3,ENE,5.8,-,N/A,Rain,Light Rain,70,2013-03-06 21:50:00
10:20 PM,48.2,42.8,82,29.53,3.7,ENE,5.8,-,N/A,Rain,Light Rain,60,2013-03-06 22:20:00
10:50 PM,48.2,42.8,82,29.53,3.7,NE,3.5,-,N/A,,Unknown,40,2013-03-06 22:50:00
11:20 PM,46.4,42.8,87,29.53,2.8,ENE,4.6,-,N/A,Rain,Light Rain,60,2013-03-06 23:20:00
11:50 PM,47,44,83,29.53,3,NE,4.6,,,Rain,Light Rain Showers,50,2013-03-06 23:50:00
11:50 PM,46.4,42.8,87,29.53,-9999.0,Variable,3.5,-,N/A,Rain,Light Rain,0,2013-03-06 23:50:00